DW2871 Weather Reports


Display with metric or nautical units.
time (UTC)temp
F
wind
direction
speed
MPH
gust
MPH
rain 1hr
in
rain 24hr
in
rain mn
in
humidity
%
barometer
mb
20260506031532 0 304 0.0 0.0 0.00 0.00 0.00 1014.7
20260506030037 0 300 0.0 0.0 0.00 0.00 0.00 1014.9
20260506024545 0 296 0.0 0.0 0.00 0.00 0.00 1015.3
20260506023016 0 303 0.0 0.0 0.00 0.00 0.00 1015.7
20260506021511 0 304 0.0 0.0 0.00 0.00 0.00 1016.0
20260506020007 0 319 0.0 0.0 0.00 0.00 0.00 1016.3
20260506014600 0 329 0.0 0.0 0.00 0.00 0.00 1016.5
20260506013107 0 297 0.0 0.0 0.00 0.00 0.00 1016.8
20260506011604 0 343 0.0 0.0 0.00 0.00 0.00 1017.0
20260506010047 0 327 0.0 0.0 0.00 0.00 0.00 1017.2
20260506004512 0 300 0.0 0.0 0.00 0.00 0.00 1017.4
20260506003008 0 292 0.0 0.0 0.00 0.00 0.00 1017.5
20260506001601 0 269 0.0 0.0 0.00 0.00 0.00 1017.7
20260506000101 0 257 0.0 0.0 0.00 0.00 0.00 1017.7
20260505234552 0 292 0.0 0.0 0.00 0.00 0.00 1017.9
20260505233048 0 303 0.0 0.0 0.00 0.00 0.00 1018.0
20260505231542 0 264 0.0 0.0 0.00 0.00 0.00 1018.2
20260505230050 0 299 0.0 0.0 0.00 0.00 0.00 1018.3
20260505224532 0 272 0.0 0.0 0.00 0.00 0.00 1018.3
20260505223029 0 319 0.0 0.0 0.00 0.00 0.00 1018.3
20260505221521 0 360 0.0 0.0 0.00 0.00 0.00 1018.4
20260505220015 0 250 0.0 0.0 0.00 0.00 0.00 1018.3
20260505214512 0 292 0.0 0.0 0.00 0.00 0.00 1018.3
20260505213008 0 283 0.0 0.0 0.00 0.00 0.00 1018.2
20260505211600 0 288 0.0 0.0 0.00 0.00 0.00 1018.3
20260505210055 0 325 0.0 0.0 0.00 0.00 0.00 1018.3
20260505204556 0 297 0.0 0.0 0.00 0.00 0.00 1018.4
20260505203054 0 360 0.0 0.0 0.00 0.00 0.00 1018.4
20260505201511 0 281 0.0 0.0 0.00 0.00 0.00 1018.5
20260505200018 0 286 0.0 0.0 0.00 0.00 0.00 1018.6
20260505194614 0 305 0.0 0.0 0.00 0.00 0.00 1018.6
20260505193056 0 289 0.0 0.0 0.00 0.00 0.00 1018.5
20260505191552 0 294 0.0 0.0 0.00 0.00 0.00 1018.5
20260505190047 0 296 0.0 0.0 0.00 0.00 0.00 1018.6
20260505184543 0 315 0.0 0.0 0.00 0.00 0.00 1018.6
20260505183033 0 360 0.0 0.0 0.00 0.00 0.00 1018.7
20260505181529 0 284 0.0 0.0 0.00 0.00 0.00 1018.7
20260505180024 0 283 0.0 0.0 0.00 0.00 0.00 1018.7
20260505174521 0 292 0.0 0.0 0.00 0.00 0.00 1018.8
20260505173033 0 291 0.0 0.0 0.00 0.00 0.00 1018.8
20260505171509 0 258 0.0 0.0 0.00 0.00 0.00 1019.1
20260505170004 0 293 0.0 0.0 0.00 0.00 0.00 1019.3
20260505164605 0 290 0.0 0.0 0.00 0.00 0.00 1019.4
20260505163059 0 289 0.0 0.0 0.00 0.00 0.00 1019.4
20260505161549 0 297 0.0 0.0 0.00 0.00 0.00 1019.4
20260505153047 0 286 0.0 0.0 0.00 0.00 0.00 1019.9
20260505151527 0 290 0.0 0.0 0.00 0.00 0.00 1020.0
20260505124508 0 275 0.0 0.0 0.00 0.00 0.00 1020.6
20260505123003 0 278 0.0 0.0 0.00 0.00 0.00 1020.7
20260505121600 0 277 0.0 0.0 0.00 0.00 0.00 1020.7
20260505120051 0 279 0.0 0.0 0.00 0.00 0.00 1020.7
20260505114548 0 278 0.0 0.0 0.00 0.00 0.00 1020.8
20260505113043 0 271 0.0 0.0 0.00 0.00 0.00 1020.8
20260505111550 0 271 0.0 0.0 0.00 0.00 0.00 1020.8
20260505101518 0 269 0.0 0.0 0.00 0.00 0.00 1020.7
20260505100011 0 270 0.0 0.0 0.00 0.00 0.00 1020.9
20260505094506 0 269 0.0 0.0 0.00 0.00 0.00 1021.0
20260505093002 0 270 0.0 0.0 0.00 0.00 0.00 1020.9
20260505091602 0 269 0.0 0.0 0.00 0.00 0.00 1020.9
20260505090057 0 269 0.0 0.0 0.00 0.00 0.00 1020.7
20260505084548 0 269 0.0 0.0 0.00 0.00 0.00 1020.6
20260505083047 0 269 0.0 0.0 0.00 0.00 0.00 1020.5
20260505081552 0 269 0.0 0.0 0.00 0.00 0.00 1020.4
20260505080002 0 269 0.0 0.0 0.00 0.00 0.00 1020.3
20260505074611 0 269 0.0 0.0 0.00 0.00 0.00 1020.0
20260505073055 0 270 0.0 0.0 0.00 0.00 0.00 1019.9
20260505071526 0 269 0.0 0.0 0.00 0.00 0.00 1019.7
20260505070015 0 269 0.0 0.0 0.00 0.00 0.00 1019.6
20260505064508 0 269 0.0 0.0 0.00 0.00 0.00 1019.5
20260505063002 0 269 0.0 0.0 0.00 0.00 0.00 1019.5
20260505061625 0 269 0.0 0.0 0.00 0.00 0.00 1019.5
20260505060055 0 269 0.0 0.0 0.00 0.00 0.00 1019.4
20260505054559 0 269 0.0 0.0 0.00 0.00 0.00 1019.3
20260505053044 0 269 0.0 0.0 0.00 0.00 0.00 1019.2
20260505051538 0 269 0.0 0.0 0.00 0.00 0.00 1019.3
20260505041517 0 271 0.0 0.0 0.00 0.00 0.00 1019.3
20260505040013 0 258 0.0 0.0 0.00 0.00 0.00 1019.3
20260505034505 0 238 0.0 0.0 0.00 0.00 0.00 1019.8
20260505033001 0 227 0.0 0.0 0.00 0.00 0.00 1020.1